CAPE
0 12 40 0 53 14 0 0 0 12 69 191 312 395 411 774 327 275 188 29 12 1 0 0 0 0 0 0 0 9 18 22 15 36 82 103 171 190 194 160 59 28 34 46
0 3 1 0 0 1 0 17 57 66 104 168 160 296 367 762 619 513 488 330 174 142 85 26 8 29 15 41 63 51 63 78 112 93 117 161 227 288 293 197 206 130 29 23
0 0 0 0 0 2 14 63 78 59 237 251 325 376 583 607 663 610 567 473 340 328 289 244 256 295 236 185 180 175 229 242 209 201 266 264 213 161 90 40 37 36 37 35
0 0 0 0 0 2 0 18 39 193 203 124 269 132 353 552 719 735 713 763 585 528 450 516 575 624 592 454 332 305 296 460 498 451 429 484 330 56 15 74 12 24 14 34
1 0 0 0 1 0 0 6 19 86 71 53 220 243 358 142 456 578 788 715 740 685 709 797 775 664 571 458 424 425 607 666 636 500 442 583 444 178 104 74 73 41 50 70
0 0 0 0 0 0 30 73 1 0 8 80 55 234 110 404 459 367 345 478 648 528 339 515 403 297 422 363 470 415 386 551 490 492 476 447 361 255 202 234 151 10 27 29
5 0 0 0 76 60 64 159 147 80 42 67 70 203 316 182 131 148 163 222 132 161 271 107 273 381 373 278 227 183 199 350 375 334 248 248 272 337 358 318 66 50 24 9
0 1 53 122 164 224 71 226 257 121 71 59 45 151 297 47 60 68 33 41 53 34 108 177 223 232 185 52 220 252 157 226 325 202 182 207 256 228 230 106 72 61 76 53
7 39 82 125 100 167 57 129 0 37 0 0 0 1 11 57 131 84 8 0 13 36 97 103 139 201 178 105 273 128 123 192 178 109 89 87 250 167 120 103 75 69 116 67
128 194 108 165 64 0 56 0 0 0 0 0 0 13 52 48 223 302 81 13 24 6 20 0 25 68 143 253 106 0 12 63 31 2 55 63 26 38 29 11 31 87 78 82
165 173 136 103 54 11 0 2 0 0 0 0 1 5 22 114 77 160 337 119 7 0 7 25 2 0 0 0 0 0 0 0 1 0 0 0 15 15 12 26 38 51 42 48
75 189 229 151 1 0 0 0 0 0 0 0 0 0 0 0 0 0 6 81 2 0 0 0 0 0 0 0 0 0 0 0 0 0 0 0 0 0 0 5 36 49 43 60
55 63 117 86 0 0 0 0 0 0 0 0 2 7 0 0 0 0 0 0 0 0 0 0 0 0 0 0 0 0 1 1 0 0 0 0 0 0 0 0 8 19 55 63
43 13 86 50 0 0 18 12 0 0 0 0 0 0 0 0 0 0 0 0 0 0 0 0 0 0 0 2 13 13 0 0 0 0 0 0 0 0 0 2 14 32 47 71
81 167 8 0 0 0 0 0 0 0 0 0 0 0 0 0 0 0 0 0 0 0 0 0 0 0 1 16 5 0 0 0 0 0 0 0 0 0 3 22 37 74 81 70
21 101 52 29 0 0 0 0 0 0 0 0 0 0 0 0 0 0 0 0 0 0 0 0 0 0 0 0 0 0 0 0 0 0 0 0 4 6 15 46 40 66 63 38
199 224 222 146 48 11 16 0 0 0 0 0 0 0 0 0 0 0 0 0 0 0 0 0 0 0 0 0 0 0 0 0 0 0 0 2 12 16 20 35 42 34 39 30
274 301 182 155 60 5 76 0 0 1 0 0 0 0 0 0 0 0 0 0 0 0 0 0 0 0 0 0 0 0 0 0 0 0 0 13 31 40 47 28 20 28 31 58
159 321 135 98 37 0 74 111 0 13 0 0 0 0 0 0 0 0 0 0 0 0 0 0 0 0 0 0 0 0 0 0 0 0 4 19 38 43 66 42 22 43 55 89
88 172 315 64 35 1 18 23 17 0 0 0 0 0 0 0 0 0 0 0 0 0 0 0 0 0 0 0 0 0 0 0 0 5 13 10 44 66 72 77 67 73 87 126
295 214 152 20 126 23 0 0 10 0 0 0 0 0 0 0 0 0 0 0 0 0 0 0 0 0 0 0 0 3 9 11 13 5 0 5 26 56 111 54 123 98 139 241
212 201 152 46 38 10 0 0 0 0 0 0 0 0 0 0 0 0 0 0 0 0 0 0 0 0 0 0 0 6 17 26 27 0 0 26 32 42 129 55 142 182 124 219
171 64 161 21 92 14 0 0 0 0 0 0 0 0 0 0 0 0 0 0 0 0 0 0 0 0 0 1 3 7 13 24 19 0 8 35 50 42 113 11 60 299 353 287
0 0 46 48 0 0 0 0 0 0 0 0 0 0 0 0 0 0 0 0 0 0 0 0 0 0 0 9 15 8 6 6 10 2 17 20 10 24 34 18 44 184 216 105
0 2 10 0 0 0 0 0 0 0 0 0 0 0 0 0 0 0 0 0 0 0 0 0 0 0 0 15 17 13 11 6 11 10 6 10 5 21 25 29 19 11 40 13
0 1 0 0 0 0 0 0 0 0 0 0 0 0 0 0 0 0 0 0 0 0 0 0 0 0 0 0 3 11 13 0 2 1 0 2 1 10 16 11 4 0 0 0
CIN
-0 -80 -22 -3 -70 -53 -0 -0 -0 -106 -184 -133 -97 -117 -128 -174 -243 -203 -175 -237 -248 -28 -0 -0 -0 -0 -0 -0 -0 -143 -150 -162 -163 -122 -78 -55 -28 -29 -33 -31 -48 -47 -17 -10
-0 -42 -30 -0 -0 -105 -0 -83 -56 -155 -234 -152 -150 -109 -176 -182 -181 -148 -107 -131 -149 -98 -118 -142 -109 -152 -163 -113 -122 -135 -145 -124 -101 -119 -91 -61 -41 -24 -28 -29 -23 -19 -28 -24
-0 -0 -0 -0 -0 -49 -56 -64 -50 -46 -181 -204 -148 -71 -142 -213 -184 -155 -123 -95 -98 -69 -46 -29 -47 -66 -89 -114 -121 -130 -123 -101 -93 -97 -67 -50 -48 -42 -34 -16 -16 -19 -28 -31
-0 -0 -0 -0 -0 -33 -2 -70 -76 -91 -65 -6 -167 -13 -97 -202 -192 -175 -133 -78 -73 -35 -36 -24 -34 -47 -71 -98 -127 -120 -106 -72 -62 -67 -48 -31 -8 -8 -16 -27 -21 -33 -54 -45
-7 -0 -0 -2 -23 -0 -0 -136 -113 -108 -93 -98 -103 -46 -28 -314 -156 -170 -156 -128 -71 -38 -28 -31 -42 -88 -100 -120 -109 -106 -71 -57 -56 -66 -60 -30 -29 -35 -47 -41 -50 -56 -54 -40
-0 -0 -0 -0 -0 -0 -154 -101 -36 -0 -80 -25 -28 -50 -41 -62 -91 -143 -208 -178 -101 -83 -72 -88 -137 -171 -136 -144 -91 -112 -94 -57 -67 -65 -63 -58 -45 -30 -23 -11 -11 -15 -25 -29
-12 -0 -0 -0 -62 -160 -152 -61 -4 -5 -0 -7 -175 -70 -37 -126 -164 -187 -182 -171 -187 -172 -147 -245 -143 -132 -118 -76 -80 -84 -68 -39 -29 -47 -70 -60 -54 -47 -32 -21 -28 -34 -20 -21
-0 -19 -67 -73 -47 -29 -150 -57 -5 -4 -2 -2 -165 -51 -24 -206 -238 -242 -230 -182 -207 -224 -156 -129 -118 -102 -80 -142 -65 -38 -40 -33 -20 -62 -67 -62 -56 -36 -27 -32 -28 -23 -17 -17
-23 -59 -127 -116 -105 -81 -115 -43 -0 -48 -0 -0 -0 -7 -140 -205 -155 -180 -200 -0 -128 -184 -151 -141 -126 -100 -65 -46 -31 -27 -37 -38 -81 -74 -91 -76 -47 -42 -42 -42 -53 -31 -23 -18
-140 -30 -110 -92 -108 -0 -78 -0 -0 -0 -0 -0 -0 -62 -8 -16 -37 -94 -146 -167 -168 -113 -180 -0 -149 -139 -88 -40 -35 -0 -127 -122 -74 -163 -93 -85 -88 -72 -74 -114 -76 -20 -16 -11
-147 -125 -63 -107 -81 -104 -0 -55 -0 -0 -0 -0 -24 -11 -12 -56 -95 -76 -56 -103 -144 -16 -147 -114 -39 -0 -0 -0 -0 -0 -0 -0 -74 -44 -0 -0 -62 -62 -66 -41 -26 -12 -14 -14
-309 -142 -50 -49 -118 -0 -0 -0 -0 -0 -0 -0 -0 -0 -0 -10 -0 -0 -125 -118 -71 -0 -0 -0 -0 -0 -0 -0 -0 -0 -0 -0 -0 -0 -0 -0 -0 -0 -0 -24 -2 -3 -8 -7
-210 -159 -33 -32 -0 -0 -17 -0 -0 -0 -0 -11 -0 -7 -0 -0 -0 -0 -0 -0 -0 -0 -0 -0 -0 -0 -0 -0 -0 -30 -164 -53 -0 -0 -0 -0 -0 -0 -0 -0 -7 -14 -2 -2
-318 -177 -34 -22 -0 -0 -67 -87 -0 -0 -0 -0 -0 -0 -0 -0 -0 -0 -0 -0 -0 -0 -0 -0 -0 -0 -0 -70 -150 -110 -46 -0 -0 -0 -0 -0 -0 -0 -0 -0 -0 -1 -7 -0
-177 -51 -49 -0 -0 -0 -0 -0 -0 -0 -0 -0 -0 -0 -0 -0 -0 -0 -0 -0 -0 -0 -0 -0 -0 -0 -60 -98 -172 -0 -0 -0 -0 -0 -0 -0 -0 -0 -0 -0 -0 -0 -2 -1
-277 -73 -82 -32 -0 -1 -0 -0 -0 -0 -0 -0 -0 -0 -0 -0 -0 -0 -0 -0 -0 -0 -0 -0 -0 -0 -0 -0 -0 -0 -0 -0 -0 -0 -0 -0 -0 -0 -0 -0 -0 -1 -2 -9
-84 -49 -31 -9 -55 -74 -34 -0 -0 -0 -0 -0 -0 -0 -0 -0 -0 -0 -0 -0 -0 -0 -0 -0 -0 -0 -0 -0 -0 -0 -0 -0 -0 -0 -0 -0 -0 -0 -0 -0 -0 -2 -5 -11
-96 -73 -77 -14 -26 -13 -42 -0 -0 -6 -0 -0 -0 -0 -0 -0 -0 -0 -0 -0 -0 -0 -0 -0 -0 -0 -0 -0 -0 -0 -0 -0 -0 -0 -0 -0 -0 -0 -0 -0 -0 -4 -4 -0
-195 -85 -51 -14 -13 -1 -27 -25 -0 -13 -0 -0 -0 -0 -0 -0 -0 -0 -0 -0 -0 -0 -0 -0 -0 -0 -0 -0 -0 -0 -0 -0 -0 -0 -2 -1 -0 -0 -0 -0 -3 -1 -0 -0
-178 -139 -26 -66 -6 -0 -24 -60 -64 -0 -0 -0 -0 -0 -0 -0 -0 -0 -0 -0 -0 -0 -0 -0 -0 -0 -0 -0 -0 -0 -0 -0 -0 -3 -9 -22 -10 -0 -0 -0 -1 -1 -1 -0
-44 -77 -34 -23 -6 -27 -0 -0 -34 -0 -0 -0 -0 -0 -0 -0 -0 -0 -0 -0 -0 -0 -0 -0 -0 -0 -0 -0 -0 -18 -11 -4 -5 -31 -0 -41 -24 -3 -2 -29 -3 -2 -2 -2
-27 -16 -23 -58 -17 -3 -0 -0 -0 -0 -0 -0 -0 -0 -0 -0 -0 -0 -0 -0 -0 -0 -0 -0 -0 -0 -0 -0 -0 -20 -12 -5 -22 -0 -19 -7 -14 -0 -0 -36 -0 -5 -23 -0
-17 -72 -28 -48 -24 -95 -0 -0 -0 -0 -0 -0 -0 -0 -0 -0 -0 -0 -0 -0 -0 -0 -0 -0 -0 -0 -0 -3 -31 -25 -17 -12 -31 -0 -51 -1 -0 -2 -3 -38 -7 -2 -0 -0
-0 -0 -46 -51 -0 -0 -0 -0 -0 -0 -0 -0 -0 -0 -0 -0 -0 -0 -0 -0 -0 -0 -0 -0 -0 -0 -0 -6 -11 -33 -33 -34 -46 -77 -10 -1 -1 -2 -9 -16 -3 -0 -0 -0
-0 -17 -63 -0 -0 -0 -0 -0 -0 -0 -0 -0 -0 -0 -0 -0 -0 -0 -0 -0 -0 -0 -0 -0 -0 -0 -1 -16 -19 -28 -22 -41 -34 -28 -16 -0 -0 -1 -1 -0 -2 -5 -0 -0
-0 -13 -0 -0 -0 -0 -0 -0 -0 -0 -0 -0 -0 -0 -0 -0 -0 -0 -0 -0 -0 -0 -0 -0 -0 -0 -0 -0 -22 -19 -15 -0 -10 -7 -3 -0 -0 -0 -0 -0 -1 -0 -0 -0
Wind_Speed
3 5 8 10 13 13 8 8 13 4 4 9 14 17 11 11 14 13 13 13 14 15 13 13 13 12 11 10 11 11 10 10 7 6 6 5 5 4 5 4 6 5 6 9
4 9 12 3 7 10 8 7 8 2 2 10 3 14 10 11 15 16 15 14 15 14 12 11 12 11 12 13 13 11 12 10 7 4 3 4 4 4 6 5 6 6 6 6
5 6 3 7 3 5 6 8 9 5 6 2 2 8 6 6 13 14 17 14 13 14 13 12 11 11 11 12 11 10 9 7 5 5 3 4 3 4 4 3 4 4 6 8
7 1 3 2 10 3 13 6 10 5 6 7 2 5 4 5 11 16 17 18 16 14 13 12 9 9 11 10 8 6 6 5 4 4 5 6 4 4 2 4 4 6 6 7
11 8 8 12 11 5 13 1 2 5 4 3 6 4 3 3 8 15 16 17 17 13 12 12 8 9 8 5 5 4 5 4 5 6 7 6 6 4 4 4 6 5 6 6
14 1 5 12 12 7 4 3 3 3 2 6 3 6 4 4 3 3 4 12 13 13 11 9 4 6 7 8 9 9 6 7 7 8 8 7 7 6 5 6 6 6 6 7
5 7 4 4 5 3 2 2 5 5 4 9 4 5 9 4 6 8 7 7 8 6 7 9 11 9 9 10 8 6 7 8 8 6 6 6 7 7 8 7 6 8 7 7
6 10 6 4 4 2 3 3 4 9 10 12 3 6 2 1 6 5 4 5 6 7 7 8 8 9 9 6 6 8 8 8 8 6 6 6 7 5 5 6 6 7 7 8
6 6 2 3 2 3 3 4 3 3 2 5 2 4 7 2 6 4 4 6 9 8 7 5 5 8 11 7 10 9 7 7 6 6 6 8 6 6 7 8 7 8 9 8
3 4 1 2 3 7 1 4 3 1 5 5 2 4 5 6 7 7 8 11 9 6 5 5 7 5 6 7 3 5 5 6 6 6 5 5 6 7 7 7 8 10 10 10
4 2 1 3 1 0 2 2 2 1 3 4 5 4 5 9 8 7 9 8 6 6 6 6 5 2 5 5 4 5 5 5 4 4 5 5 7 9 9 9 10 9 9 10
1 3 3 1 1 2 1 1 1 3 1 0 2 3 4 8 9 8 8 7 7 5 5 0 4 5 2 3 3 3 3 4 5 5 6 7 8 8 9 10 10 9 10 10
3 2 2 2 4 2 2 2 3 3 1 4 6 3 5 8 8 7 7 1 6 4 5 7 8 5 5 3 2 4 5 5 6 7 8 8 8 9 10 11 11 10 12 11
3 3 3 3 2 2 4 8 4 2 3 1 2 8 11 17 16 9 7 7 9 8 9 6 2 3 1 4 5 5 5 7 7 8 9 10 11 11 11 11 12 11 11 11
2 3 3 2 2 2 2 3 5 2 3 4 8 9 11 13 13 7 6 7 8 9 6 7 5 1 3 4 4 5 6 7 8 10 11 11 12 12 12 12 12 11 11 11
1 2 1 2 0 3 5 3 1 5 6 4 7 6 11 8 5 6 4 6 7 8 5 4 3 1 3 3 4 6 7 9 10 11 11 11 11 12 12 11 11 11 11 12
1 3 1 1 5 5 4 3 5 3 6 3 7 5 8 7 8 7 5 3 5 3 2 3 0 3 2 4 5 7 7 8 9 10 10 11 11 12 11 11 12 12 12 12
4 4 1 2 4 2 4 1 1 2 6 5 3 2 4 4 4 4 3 4 4 3 1 0 2 0 1 4 5 6 7 8 9 10 11 12 13 13 13 12 13 13 12 12
2 4 3 3 1 2 3 2 1 2 4 4 2 1 3 2 4 2 1 1 2 1 0 2 1 1 2 5 6 6 8 8 9 10 11 11 12 13 14 13 14 13 11 12
5 5 1 2 1 2 3 3 1 1 3 2 0 1 3 4 5 5 4 3 2 2 0 2 3 3 5 6 5 7 9 9 10 10 10 10 11 12 14 11 13 11 11 10
2 2 1 2 2 1 2 6 1 3 5 1 1 2 4 3 4 4 2 3 2 3 3 3 4 6 7 6 6 9 10 11 10 9 7 9 9 12 11 9 11 11 12 10
0 2 2 2 2 3 4 1 2 4 2 2 2 1 1 1 0 1 3 4 4 5 4 4 6 7 8 6 6 11 11 11 9 6 8 9 8 10 7 9 11 14 7 9
2 2 2 2 3 1 2 2 2 3 2 2 2 2 2 2 3 4 5 4 5 6 6 5 6 8 10 10 8 11 13 11 9 7 9 8 9 10 8 7 9 9 9 7
2 2 2 4 2 1 1 1 2 3 2 4 3 3 5 4 5 6 5 5 5 5 7 6 7 9 11 12 10 11 12 11 9 8 7 6 7 8 7 6 5 7 6 7
2 1 4 4 1 2 1 2 1 2 3 5 4 4 7 7 8 7 7 7 6 6 7 6 7 9 12 12 12 12 11 8 7 7 5 5 5 6 7 6 6 7 6 4
1 3 1 3 3 1 3 3 2 5 7 6 6 7 9 9 10 6 8 8 7 7 7 7 9 10 12 11 11 12 9 5 6 6 4 5 6 6 6 6 7 3 4 10
Wind_Direction
184 212 231 251 220 258 289 261 256 267 191 205 234 260 265 206 212 216 220 215 223 221 224 228 228 224 224 230 230 228 234 234 233 246 267 273 279 289 279 282 288 289 278 278
154 238 246 281 227 244 259 258 260 211 163 216 246 272 266 219 219 219 221 223 229 231 222 218 208 206 212 219 224 222 226 232 228 225 244 266 300 302 302 305 295 287 290 297
223 275 173 263 222 266 275 241 256 274 144 182 300 280 249 225 228 224 228 237 238 239 237 231 211 202 206 211 211 223 231 230 227 217 242 250 267 258 268 282 305 326 314 307
251 271 272 298 304 261 302 244 245 179 199 288 245 282 264 246 247 232 230 229 235 239 239 244 226 215 217 219 210 214 232 227 232 202 217 232 261 286 308 295 301 312 326 318
263 254 268 283 273 252 282 25 218 169 192 242 184 236 255 268 260 245 233 228 229 237 240 241 235 233 225 221 205 202 214 221 225 208 221 229 244 248 288 287 296 294 293 298
258 280 235 258 290 230 140 127 85 90 154 256 274 219 259 231 258 316 266 227 227 239 238 233 223 181 165 158 165 169 184 218 211 216 223 242 260 278 286 294 304 318 327 325
254 251 250 205 211 158 174 245 273 256 243 290 133 202 267 300 302 285 314 210 200 194 176 166 172 162 147 167 166 169 197 230 228 236 247 257 271 279 285 299 305 309 311 316
250 280 196 181 241 240 160 201 261 294 293 312 154 236 272 274 313 259 267 223 174 176 181 186 165 151 153 163 225 199 213 243 246 266 273 276 286 287 291 307 312 302 301 307
188 253 297 63 32 316 121 218 18 285 98 251 12 266 259 271 239 226 195 187 196 191 186 189 181 179 182 194 217 236 248 268 298 301 311 311 320 312 307 310 306 301 300 303
139 270 25 28 121 69 325 94 259 212 278 291 185 289 285 290 256 219 212 211 203 191 181 190 212 208 183 236 246 302 290 296 324 317 310 318 318 324 318 315 307 305 301 303
136 215 184 242 96 61 194 223 67 319 287 303 322 306 350 331 346 310 268 237 213 197 199 217 240 9 3 327 308 314 311 312 324 326 328 329 330 333 328 313 303 295 301 306
66 144 253 325 45 272 206 69 140 292 264 58 307 297 345 333 330 307 293 256 189 191 219 323 56 38 356 282 345 339 336 338 359 351 345 345 337 333 325 317 305 298 302 307
182 49 268 191 165 138 52 31 104 112 213 241 295 349 15 5 356 359 331 236 134 108 88 59 36 17 329 352 334 5 26 14 4 354 341 335 331 330 328 322 320 306 304 311
60 108 254 295 313 17 304 321 346 229 266 2 299 320 357 356 355 1 47 77 76 81 82 87 147 98 88 54 33 11 12 6 353 335 337 337 334 329 323 320 317 310 305 311
87 158 231 26 272 198 72 21 44 73 46 351 353 339 8 354 352 29 83 91 89 89 128 162 108 100 333 29 16 8 357 352 347 341 336 334 329 324 319 323 323 316 315 316
89 134 286 153 102 348 108 51 102 80 31 21 346 36 5 9 39 55 82 122 144 167 127 118 107 294 337 10 357 358 356 349 340 334 332 329 327 326 324 323 326 319 319 318
139 142 11 281 351 134 154 47 57 88 55 346 14 1 336 19 28 29 47 103 112 107 100 96 155 304 0 1 354 344 335 334 331 327 325 327 327 328 333 328 325 325 322 312
144 113 137 304 308 221 67 173 344 58 63 49 79 32 35 46 47 49 74 128 131 147 133 284 293 259 344 337 330 315 320 324 323 322 320 328 332 327 326 328 326 324 321 314
21 119 123 268 306 22 115 43 359 9 80 23 72 129 124 154 277 145 174 226 216 214 278 346 309 221 282 295 304 306 310 313 315 324 327 328 330 329 325 326 326 326 321 317
83 63 259 155 255 271 56 6 298 233 138 39 108 188 204 298 336 26 204 202 195 220 268 261 219 219 258 281 294 293 299 304 312 317 317 320 324 327 322 325 323 319 313 305
118 59 100 150 219 129 8 323 205 280 33 95 199 202 217 303 340 343 238 232 270 257 252 241 230 250 266 287 292 288 297 299 303 301 308 309 317 324 328 314 317 322 314 307
218 160 151 112 220 195 7 222 345 74 155 222 195 189 244 291 30 244 252 269 253 253 257 236 250 258 276 286 279 286 292 294 293 309 302 310 320 329 325 318 320 328 321 324
165 354 45 301 46 8 322 47 79 167 200 177 209 179 189 156 233 263 278 277 270 266 277 263 258 275 280 281 273 281 286 296 315 303 302 323 328 336 339 324 340 337 346 355
99 123 108 187 122 337 60 179 226 205 220 173 195 169 185 224 245 265 278 281 279 276 274 283 269 270 283 288 290 282 288 298 306 303 307 333 330 338 329 328 348 345 348 340
38 191 138 108 59 129 144 270 285 158 192 187 157 186 220 231 253 261 279 282 278 272 275 274 273 279 283 287 293 292 297 302 296 299 294 311 316 328 322 333 333 342 343 344
221 142 179 107 145 58 349 321 208 197 211 203 197 216 233 236 256 268 274 282 278 277 280 276 271 269 276 286 290 292 304 290 292 291 285 310 305 316 328 332 335 338 280 303